Regional Weather Roundup
Issued by NWS Cleveland, OH

Home | Current Version | Previous Version | Graphics & Text | Print | Product List | Glossary On
Versions: 1 2 3 4 5 6 7 8 9 10 11 12 13 14 15 16 17 18 19 20 21 22 23 24 25 26 27 28 29 30 31 32 33 34 35 36 37 38 39 40 41 42 43 44 45 46 47 48 49 50
000
ASUS41 KCLE 280210
RWRCLE
OHIO REGIONAL WEATHER ROUNDUP
NATIONAL WEATHER SERVICE CLEVELAND, OH
1000 PM EDT SAT AUG 27 2016

NOTE: "FAIR" INDICATES FEW OR NO CLOUDS BELOW 12,000 FEET WITH NO
SIGNIFICANT WEATHER AND/OR OBSTRUCTIONS TO VISIBILITY.

OHZ001>008-015>018-024>027-034-035-043-044-280300-
   NORTHWEST OHIO

CITY           SKY/WX    TMP DP  RH WIND       PRES   REMARKS
DEFIANCE       CLEAR     75  71  87 SE5       30.12R
FINDLAY        CLEAR     73  69  87 SE7       30.13R
TOLEDO EXPRESS CLEAR     71  71 100 SE5       30.12R
TOLEDO EXEC    PTCLDY    73  72  96 SE6       30.13R
LIMA           CLEAR     72  71  97 S7        30.14R
$$

OHZ009>014-019>023-028>033-038-089-280300-
   NORTHEAST OHIO

CITY           SKY/WX    TMP DP  RH WIND       PRES   REMARKS
CLE-HOPKINS    CLOUDY    75  71  87 W5        30.16R
CLE-LAKEFRONT  CLOUDY    75  71  87 W6        30.12S
CUY CO. ARPT   CLOUDY    73  73 100 CALM      30.13F
LORAIN-ELYRIA  CLOUDY    71  69  93 CALM      30.14S
ASHTABULA      LGT RAIN  74  70  87 SE7       30.13F
AKRON-CANTON   MOCLDY    73  68  84 SE3       30.16S
WOOSTER        CLOUDY    68  67  96 CALM      30.17R
MANSFIELD      CLEAR     70  69  97 SE5       30.17S
YOUNGSTOWN     CLOUDY    77  67  71 SW12      30.15F
$$

OHZ042-051>053-060>062-070>072-077>081-280300-
  SOUTHWEST OHIO

CITY           SKY/WX    TMP DP  RH WIND       PRES   REMARKS
CINC-COVINGTON MOCLDY    76  73  91 E3        30.13S
CINC-LUNKEN    CLEAR     73  73 100 CALM      30.13R
HAMILTON       PTCLDY    74  70  87 SE3       30.14R
DAYTON         PTCLDY    74  72  93 SE5       30.16R
WRIGHT-PAT AFB CLEAR     74  73  96 NE1       30.15R
DAYTON GENERAL CLEAR     74  69  85 CALM      30.14R
WILMINGTON     PTCLDY    71  69  93 CALM      30.15R
$$

OHZ036-037-039>041-045>050-054>059-063>069-073>076-082>088-280300-
  CENTRAL AND SOUTHEAST OHIO

CITY           SKY/WX    TMP DP  RH WIND       PRES   REMARKS
COLUMBUS       PTCLDY    72  69  90 CALM      30.14S
OSU AIRPORT    PTCLDY    72  70  93 CALM      30.15S
BOLTON FIELD   PTCLDY    70  69  96 CALM      30.16S
RICKENBACK AFB PTCLDY    73  69  87 NE6       30.15R
NEWARK         CLEAR     72  69  90 CALM      30.15R
MARION         CLEAR     71  69  93 SE3       30.17R
LANCASTER      CLEAR     71  70  96 CALM      30.15R
ZANESVILLE     CLEAR     73  68  84 CALM      30.16R
NEW PHILLY     PTCLDY    74  70  87 CALM      30.17R
$$



USA.gov is the U.S. government's official web portal to all federal, state and local government web resources and services.